User: anonymous   Login
Location: Caltech
(34.1382°N, 118.1253°W)
Time: 08:45:03
(UTC-07:00)
Language:

SPOT 1/Viking Rocket - Orbit

View from above orbital plane
View from above orbital plane
View from above satellite
View from above satellite

Ground track
Ground track

The orbit data is extracted from the following two-line orbital elements,

1 16615U 86019C   16144.16532209  .00000061  00000-0  39698-4 0  9993
2 16615  98.6597 207.3926 0012982 111.7976 273.1289 14.31592270583695
Epoch (UTC): 23 May 2016 03:58:03
Eccentricity: 0.0012982
inclination: 98.6597°
perigee height: 777 km
apogee height: 796 km
right ascension of ascending node: 207.3926°
argument of perigee: 111.7976°
revolutions per day: 14.31592270
mean anomaly at epoch: 273.1289°
orbit number at epoch: 58369

The dashed part of the orbit path shows where the satellite is in the earth's shadow,  

DLR